Zurück zum Katalog

ARIANE 1 DEB

AktivSSO
NORAD 39105·DEBRIS·🇫🇷 France

Gestartet Feb 22, 1986 von Guiana Space Centre

Loading…

Nächste Überflüge (nächste 24 Stunden)

TLE

AlterndSource: Space-Track

Epoche: Sep 5, 2026, 21:03 UTC

1 39105U 86019VT  26248.87772150  .00000410  00000-0  22858-3 0  9994
2 39105  98.5500 257.5166 0115447  52.8487 308.3164 14.12591901204403

Verfolge ARIANE 1 DEB in Echtzeit mit AllMySat

Download on the App Store